Terminal Aerodrome Forecast
Issued by NWS

Home | Current Version | Previous Version | Text Only | Print | Product List | Glossary On
Versions: 1 2 3 4 5 6 7 8 9 10 11 12 13 14 15 16 17 18 19 20 21 22 23 24 25
000
FTUS46 KEKA 191130
TAFCEC
TAF
KCEC 191130Z 1912/2012 35008KT P6SM FEW015 SCT025 BKN050
      TEMPO 1912/1915 6SM -SHRA FEW015 BKN025 OVC050
     FM191500 34015KT P6SM VCSH SCT045
     FM191900 35015G25KT P6SM SCT045
     FM200100 36008KT P6SM SKC
     FM200900 04005KT P6SM SCT150=

USA.gov is the U.S. government's official web portal to all federal, state and local government web resources and services.